Weather History for KFKS - January, 2013

Change the Weather History Date:

Saturday, January 5, 2013

  Actual Average (KTVC) Record (KTVC)
Temperature  
Mean Temperature 26 °F 22 °F  
Max Temperature 38 °F 28 °F 49 °F (1946)
Min Temperature 15 °F 16 °F -11 °F (1972)
Degree Days  
Heating Degree Days 39 43  
Month to date heating degree days 212  
Since 1 July heating degree days 3020  
Moisture  
Dew Point 25 °F    
Average Humidity 83    
Maximum Humidity 93    
Minimum Humidity 74    
Precipitation  
Precipitation 0.00 in 0.10 in 0.68 in (1998)
Month to date precipitation 0.48  
Year to date precipitation 0.48  
Sea Level Pressure  
Sea Level Pressure 30.03 in    
Wind  
Wind Speed 4 mph (SSW)    
Max Wind Speed 16 mph    
Max Gust Speed 25 mph    
Visibility 10 miles    
Events      
T = Trace of Precipitation, MM = Missing Value Source: NWS Daily Summary

Daily Weather History Graph

Daily Weather History Graph

Search for Another Location

Airport or City:

Trip Planner

Search our weather history database for the weather conditions in past years. The results will help you decide how hot, cold, wet, or windy it might be!

Date:

Astronomy

Jan. 05, 2013 Rise Set
Actual Time 8:21 AM EST 5:19 PM EST
Civil Twilight 7:48 AM EST 5:52 PM EST
Nautical Twilight 7:11 AM EST 6:29 PM EST
Astronomical Twilight 6:36 AM EST 7:04 PM EST
Moon 1:18 AM EST (1/5) 12:16 PM EST (1/5)
Length of Visible Light 10h 04m
Length of Day
8h 57m
Last Quarter, 44% of the Moon is Illuminated
Jan 5
Last Quarter
Jan 11
New
Jan 18
First Quarter
Jan 26
Full
Feb 3
Last Quarter

Hourly Weather History & Observations

Time (EST) Temp. Windchill Dew Point Humidity Pressure Visibility Wind Dir Wind Speed Gust Speed Precip Events Conditions
12:11 AM 30.9 °F 27.5 °F 23.7 °F 75% 30.09 in 10.0 mi NNW 3.5 mph - N/A   Clear
12:32 AM 30.2 °F - 23.0 °F 75% 30.10 in 10.0 mi Calm Calm - N/A   Scattered Clouds
12:52 AM 28.2 °F - 21.7 °F 77% 30.11 in 10.0 mi Calm Calm - N/A   Scattered Clouds
1:12 AM 27.0 °F - 22.5 °F 83% 30.11 in 10.0 mi Calm Calm - N/A   Scattered Clouds
1:32 AM 24.8 °F - 20.7 °F 84% 30.11 in 10.0 mi Calm Calm - N/A   Scattered Clouds
1:52 AM 24.1 °F - 21.2 °F 89% 30.12 in 10.0 mi Calm Calm - N/A   Mostly Cloudy
2:12 AM 25.3 °F - 21.9 °F 87% 30.13 in 10.0 mi Calm Calm - N/A   Overcast
2:32 AM 26.6 °F - 22.8 °F 86% 30.14 in 10.0 mi Calm Calm - N/A   Overcast
2:52 AM 25.2 °F - 22.1 °F 88% 30.15 in 10.0 mi Calm Calm - N/A   Overcast
3:13 AM 26.2 °F - 22.8 °F 87% 30.16 in 10.0 mi Calm Calm - N/A   Overcast
3:33 AM 25.9 °F - 22.6 °F 88% 30.16 in 10.0 mi Calm Calm - N/A   Overcast
3:53 AM 28.2 °F - 24.4 °F 86% 30.16 in 10.0 mi Calm Calm - N/A   Overcast
4:13 AM 27.5 °F - 23.5 °F 85% 30.16 in 10.0 mi Calm Calm - N/A   Overcast
4:33 AM 25.7 °F - 23.0 °F 89% 30.15 in 10.0 mi Calm Calm - N/A   Overcast
4:53 AM 25.9 °F - 23.0 °F 89% 30.15 in 10.0 mi Calm Calm - N/A   Mostly Cloudy
5:14 AM 23.4 °F - 20.5 °F 89% 30.15 in 10.0 mi Calm Calm - N/A   Mostly Cloudy
5:34 AM 24.3 °F - 21.6 °F 89% 30.14 in 10.0 mi Calm Calm - N/A   Mostly Cloudy
5:54 AM 23.4 °F - 21.4 °F 92% 30.15 in 10.0 mi Calm Calm - N/A   Scattered Clouds
6:14 AM 21.6 °F - 19.6 °F 92% 30.15 in 10.0 mi Calm Calm - N/A   Scattered Clouds
6:54 AM 19.8 °F - 18.0 °F 93% 30.15 in 10.0 mi Calm Calm - N/A   Clear
7:15 AM 20.1 °F - 18.1 °F 92% 30.15 in 10.0 mi Calm Calm - N/A   Clear
7:35 AM 17.2 °F - 15.3 °F 92% 30.14 in 10.0 mi Calm Calm - N/A   Clear
7:55 AM 17.4 °F - 15.4 °F 92% 30.15 in 10.0 mi Calm Calm - N/A   Clear
8:15 AM 15.4 °F - 13.5 °F 92% 30.15 in 10.0 mi Calm Calm - N/A   Clear
8:35 AM 16.3 °F - 14.5 °F 93% 30.15 in 7.0 mi Calm Calm - N/A   Clear
8:56 AM 17.1 °F - 15.4 °F 93% 30.15 in 7.0 mi Calm Calm - N/A   Clear
9:16 AM 17.2 °F - 15.6 °F 93% 30.14 in 7.0 mi Calm Calm - N/A   Clear
9:36 AM 18.5 °F 13.3 °F 16.7 °F 93% 30.15 in 7.0 mi ESE 3.5 mph - N/A   Clear
9:56 AM 22.6 °F 18.0 °F 20.7 °F 92% 30.14 in 10.0 mi SE 3.5 mph - N/A   Clear
10:16 AM 26.1 °F 19.4 °F 23.0 °F 88% 30.13 in 10.0 mi SE 5.8 mph - N/A   Clear
10:51 AM 29.3 °F 22.3 °F 23.9 °F 80% 30.12 in 10.0 mi SE 6.9 mph - N/A   Clear
11:11 AM 30.7 °F 24.1 °F 24.6 °F 78% 30.12 in 10.0 mi SSE 6.9 mph - N/A   Clear
11:52 AM 31.8 °F 23.9 °F 25.5 °F 78% 30.09 in 10.0 mi SSE 9.2 mph - N/A   Clear
12:12 PM 32.0 °F 23.0 °F 25.7 °F 78% 30.08 in 10.0 mi South 11.5 mph 16.1 mph N/A   Scattered Clouds
12:32 PM 32.0 °F 24.2 °F 26.1 °F 79% 30.06 in 10.0 mi SSE 9.2 mph - N/A   Mostly Cloudy
12:52 PM 32.0 °F 24.8 °F 26.6 °F 80% 30.05 in 10.0 mi South 8.1 mph - N/A   Overcast
1:12 PM 32.5 °F 24.2 °F 27.0 °F 80% 30.04 in 10.0 mi South 10.4 mph - N/A   Overcast
1:32 PM 33.3 °F 24.6 °F 27.5 °F 79% 30.02 in 10.0 mi South 11.5 mph 16.1 mph N/A   Overcast
1:52 PM 34.2 °F 27.5 °F 28.0 °F 78% 30.01 in 10.0 mi South 8.1 mph - N/A   Overcast
2:12 PM 34.7 °F 26.9 °F 28.4 °F 78% 29.99 in 10.0 mi SSW 10.4 mph 21.9 mph N/A   Overcast
2:33 PM 35.4 °F 26.8 °F 28.9 °F 77% 29.98 in 10.0 mi South 12.7 mph 19.6 mph N/A   Mostly Cloudy
2:53 PM 36.5 °F 29.7 °F 30.0 °F 77% 29.96 in 10.0 mi South 9.2 mph 18.4 mph N/A   Mostly Cloudy
3:13 PM 35.8 °F 29.4 °F 30.0 °F 80% 29.97 in 10.0 mi SSW 8.1 mph 16.1 mph N/A   Mostly Cloudy
3:33 PM 36.0 °F 28.0 °F 29.8 °F 78% 29.96 in 10.0 mi SSW 11.5 mph 20.7 mph N/A   Mostly Cloudy
3:53 PM 35.6 °F 27.5 °F 29.3 °F 78% 29.94 in 10.0 mi SSW 11.5 mph 18.4 mph N/A   Scattered Clouds
4:13 PM 36.0 °F 32.1 °F 28.4 °F 74% 29.93 in 10.0 mi SSW 4.6 mph 16.1 mph N/A   Clear
4:33 PM 36.0 °F 28.5 °F 28.4 °F 74% 29.93 in 10.0 mi South 10.4 mph - N/A   Clear
4:54 PM 36.1 °F 29.9 °F 29.1 °F 76% 29.92 in 10.0 mi SSW 8.1 mph 18.4 mph N/A   Scattered Clouds
5:14 PM 36.3 °F 29.5 °F 29.3 °F 76% 29.92 in 10.0 mi South 9.2 mph 16.1 mph N/A   Mostly Cloudy
6:14 PM 36.1 °F 29.9 °F 30.2 °F 79% 29.90 in 10.0 mi SSE 8.1 mph - N/A   Overcast
6:34 PM 36.5 °F 29.2 °F 30.9 °F 80% 29.90 in 10.0 mi South 10.4 mph 17.3 mph N/A   Overcast
6:55 PM 36.9 °F 30.7 °F 31.6 °F 81% 29.90 in 10.0 mi South 8.1 mph 18.4 mph N/A   Overcast
7:15 PM 37.4 °F 28.9 °F 32.0 °F 81% 29.89 in 10.0 mi SSW 13.8 mph 21.9 mph N/A   Overcast
7:35 PM 37.8 °F 29.0 °F 31.6 °F 79% 29.88 in 10.0 mi SSW 15.0 mph 21.9 mph N/A   Overcast
7:55 PM 37.9 °F 28.9 °F 32.0 °F 79% 29.88 in 10.0 mi SSW 16.1 mph 23.0 mph N/A   Overcast
8:15 PM 37.9 °F 29.2 °F 32.0 °F 79% 29.88 in 10.0 mi SSW 15.0 mph 21.9 mph N/A   Overcast
8:35 PM 37.8 °F 29.8 °F 32.0 °F 80% 29.87 in 10.0 mi SW 12.7 mph 21.9 mph N/A   Overcast
9:15 PM 37.4 °F 30.3 °F 32.9 °F 84% 29.86 in 10.0 mi SW 10.4 mph 18.4 mph N/A   Overcast
9:36 PM 37.4 °F 28.5 °F 32.0 °F 81% 29.86 in 10.0 mi WSW 15.0 mph 21.9 mph N/A   Overcast
9:56 PM 36.7 °F 28.9 °F 31.1 °F 80% 29.87 in 10.0 mi WSW 11.5 mph 25.3 mph N/A   Overcast
10:16 PM 36.5 °F 29.2 °F 30.4 °F 78% 29.87 in 10.0 mi WSW 10.4 mph 19.6 mph N/A   Overcast
10:36 PM 36.1 °F 26.9 °F 29.3 °F 76% 29.86 in 10.0 mi WSW 15.0 mph 21.9 mph N/A   Overcast
10:56 PM 36.1 °F 26.9 °F 28.6 °F 74% 29.86 in 10.0 mi West 15.0 mph 21.9 mph N/A   Overcast
11:16 PM 36.1 °F 26.9 °F 28.6 °F 74% 29.86 in 10.0 mi WSW 15.0 mph 21.9 mph N/A   Overcast
11:36 PM 36.1 °F 27.3 °F 28.8 °F 75% 29.86 in 10.0 mi West 13.8 mph 24.2 mph N/A   Overcast
11:51 PM 36.1 °F 28.7 °F 28.6 °F 74% 29.85 in 10.0 mi West 10.4 mph 18.4 mph N/A   Overcast